Flag for U.S.A. Weather past 2 weeks in Lafayette, Indiana, U.S.A.

Now
67 °F

Overcast.


Feels Like: 67 °F
Forecast: 56 / 75 °F
Wind: 5 mph from West

Location: Purdue University Airport

Current Time: Jul 30, 2014 at 11:14:11 AM

Latest Report: Jul 30, 2014 at 10:54 AM


Visibility: 10 mi

Pressure: 30.05 "Hg

Humidity: 85%

Dew point: 62 °F

Location of LafayetteLocation

Historic Weather in Lafayette — Graph

°F

Lafayette temperature yesterday

Maximum temperature yesterday: 77 °F (at 2:54 PM)
Minimum temperature yesterday: 50 °F (at 12:54 AM)
Average temperature yesterday: 62 °F

Past Weeks' High & Low Weather Summary

 TemperatureHumidityPressure
High85 °F (Jul 27, 2:54 PM)100% (Jul 16, 1:54 AM)30.19 "Hg (Jul 16, 1:54 AM)
Low50 °F (Jul 16, 6:54 AM)45% (Jul 24, 2:54 PM)29.70 "Hg (Jul 27, 4:54 PM)
Average67 °F76%30.02 "Hg
* Reported Jul 15 9:54 AM — Jul 30 9:54 AM, Lafayette, Weather by CustomWeather, © 2014

Note: Actual official high and low records may vary slightly from our data, if they occured in-between our weather recording intervals... More about our weather records

Advertising

Lafayette weather history for previous 24 hours

 ConditionsComfort  
Time TempWeatherWind HumidityBarometerVisibility
9:54 AM
Jul 30
64 °FBroken clouds.5 mph90%30.05 "Hg10 mi
8:54 AM62 °FPartly sunny.3 mph93%30.05 "HgN/A
7:54 AM59 °FSunny.No wind100%30.03 "Hg7 mi
6:54 AM58 °FRain. Overcast.No wind97%30.03 "Hg7 mi
5:54 AM59 °FRain. Overcast.No wind96%30.02 "Hg9 mi
4:54 AM58 °FRain. Passing clouds.3 mph100%30.00 "Hg7 mi
3:54 AM58 °FRain. Clear.No wind100%30.01 "Hg10 mi
3:04 AM58 °FRain. Fog.3 mph100%30.02 "Hg2 mi
2:54 AM58 °FRain. Fog.3 mph97%30.01 "Hg1 mi
1:54 AM59 °FRain. Fog.No wind100%30.02 "Hg1 mi
12:54 AM59 °FRain. Fog.No wind100%30.03 "Hg1 mi
12:02 AM60 °FRain. Fog.No wind100%30.03 "Hg1 mi
11:54 PM
Jul 29
60 °FRain. Fog.No wind100%30.02 "Hg1 mi
10:54 PM59 °FRain. Fog.5 mph100%30.03 "Hg2 mi
9:54 PM62 °FRain. Passing clouds.5 mph96%30.03 "Hg9 mi
8:54 PM64 °FRain. Mostly cloudy.10 mph94%30.03 "Hg7 mi
7:54 PM65 °FMostly cloudy.No wind94%30.02 "Hg7 mi
6:54 PM63 °FRain. Mostly cloudy.5 mph93%30.03 "Hg7 mi
5:54 PM70 °FThundershowers. Cloudy.15 mph61%30.03 "Hg10 mi
4:54 PM77 °FSunny.12 mph48%30.01 "Hg10 mi
3:54 PM77 °FPartly sunny.16 mph50%30.03 "Hg10 mi
2:54 PM77 °FScattered clouds.14 mph48%30.03 "Hg10 mi
1:54 PM75 °FBroken clouds.5 mph52%30.04 "Hg10 mi
12:54 PM73 °FPassing clouds.7 mph55%30.06 "Hg10 mi
11:54 AM69 °FSunny.6 mph63%30.07 "Hg10 mi
Weather by CustomWeather, © 2014

See weather overviewHow to use our weather pages